Simultaneous Nadir Overpasses (SNOs) Predictions

Prediction of SNOs between NPP and PACE Satellite Orbit:

Table of predicted SNOs for the next 14.0 days since TLE Epoch: 4/20/2024
Index Date (NPP) Time (NPP) Lat,Lon (NPP) SZA (NPP ) Date (PACE) Time (PACE) Lat,Lon (PACE) SZA (PACE ) Distance(km) Time Diff (sec)
1 04/21/2024 21:12:17 79.92,-175.87 69.79 04/21/2024 21:12:10 79.92,-175.87 69.79 0.34 7
2 04/24/2024 01:38:41 79.87, 117.97 68.97 04/24/2024 01:38:33 79.87, 117.90 68.98 1.33 8
3 04/26/2024 06:05:08 79.92, 50.87 68.35 04/26/2024 06:04:57 79.91, 50.99 68.33 2.61 11
4 04/28/2024 10:31:31 79.86, -15.13 67.54 04/28/2024 10:31:17 79.86, -15.20 67.55 1.31 14
5 04/30/2024 14:08:00 -81.00, 94.78 110.41 04/30/2024 14:09:13 -81.26, 95.62 110.40 32.17 73
6 04/30/2024 14:57:57 79.89, -82.07 66.93 04/30/2024 14:57:38 79.90, -82.06 66.94 0.36 19
7 05/02/2024 18:33:42 -80.05, 42.45 113.43 05/02/2024 18:34:51 -80.05, 42.44 113.46 0.25 69



Historial Predications of SNOs between NPP and PACE
